Wind_Speed
23 23 22 22 22 21 21 21 21 21 22 22 22 23 23 23 24 24 24 24 25 25 25 25 26 26 26 26 26 26 25 26 27 26 24 23 22 21 21 20 20 19 15 12 8 4 4 6 8 9 9 8 8 9 9 9 9 9 8 8 9 9 7 5 5 6 7 7 8 10 12 11 8 6 6 7 9 8 8 6 5 7 10 11 10 9 12 18
24 24 24 24 23 23 23 23 22 22 23 23 22 22 22 22 22 22 21 22 22 22 22 22 22 23 24 24 24 24 24 26 26 24 24 22 21 21 20 20 19 18 15 11 8 4 3 5 7 8 8 8 9 10 9 8 8 8 8 8 9 9 8 7 7 7 6 6 7 10 13 13 10 8 7 7 8 8 8 6 5 7 8 7 11 10 14 18
25 25 25 25 25 24 24 24 24 24 24 24 23 23 23 23 22 22 21 21 21 21 20 19 19 20 21 21 22 23 23 25 23 22 22 21 20 20 20 19 18 17 14 11 9 5 3 4 6 7 8 8 10 11 9 8 9 9 10 9 10 9 8 7 8 9 8 6 3 8 13 14 12 10 9 9 9 9 8 7 6 5 3 8 14 14 16 19
28 27 27 26 26 26 25 25 25 25 25 24 24 24 24 24 23 22 21 21 21 21 20 19 18 18 18 18 19 20 22 23 21 20 21 19 19 19 18 18 17 15 13 11 10 6 3 3 5 6 9 7 8 11 9 8 10 11 11 10 10 10 9 8 7 8 9 8 4 6 12 13 13 13 11 11 12 11 11 10 7 4 2 10 15 17 19 20
32 31 30 30 29 28 28 27 27 27 26 26 25 25 25 25 24 23 22 22 22 22 21 20 19 18 18 17 17 18 19 21 20 20 21 19 18 19 18 18 16 14 13 12 10 7 5 3 3 5 7 5 6 9 9 9 11 12 11 11 12 11 11 10 8 8 10 11 6 3 9 12 13 13 13 15 16 15 14 13 10 6 7 13 16 18 19 19
34 34 34 34 33 33 32 31 31 30 29 28 27 27 27 26 26 25 24 22 22 22 22 21 20 19 18 17 17 16 17 19 20 19 20 19 18 19 18 17 16 14 13 12 10 8 5 3 2 4 4 4 6 8 9 9 11 13 12 12 13 12 10 10 10 11 13 14 9 3 9 11 13 14 16 19 20 17 15 14 12 10 10 14 17 19 18 18
32 33 34 35 35 35 35 35 35 34 33 32 31 30 29 28 27 26 25 24 23 23 23 22 20 19 19 18 17 17 17 17 18 18 18 18 18 18 19 17 16 15 13 12 11 9 6 3 1 2 2 5 7 7 8 9 10 12 12 13 14 13 11 10 11 13 14 13 10 5 9 11 13 14 16 20 21 19 17 15 13 11 10 13 17 21 18 18
29 30 31 32 33 34 35 35 36 36 36 36 35 34 33 32 30 28 27 26 24 24 24 23 21 20 19 19 18 18 16 15 16 16 17 18 18 18 18 17 16 15 13 12 12 10 8 5 2 0 2 5 6 8 9 9 10 11 11 13 15 14 13 13 13 14 14 13 11 7 9 9 10 13 16 18 19 19 18 16 12 10 11 14 18 20 18 19
26 27 28 29 29 30 31 32 33 34 34 35 36 37 36 36 34 32 30 28 26 25 25 24 22 20 20 19 19 18 15 14 16 16 16 17 18 19 19 17 16 15 13 13 13 11 8 6 4 1 2 3 4 7 9 7 9 12 12 12 14 14 13 15 15 16 16 15 12 8 7 8 8 12 14 16 19 21 19 14 12 11 13 16 18 17 16 19
24 25 26 26 27 27 28 28 29 30 31 32 33 34 36 37 37 36 34 32 30 28 27 26 24 22 21 20 19 18 16 16 17 17 15 17 19 20 20 17 15 15 13 14 13 10 9 8 5 2 2 2 4 6 8 7 7 12 13 12 14 16 14 15 16 18 18 16 13 8 5 8 9 11 13 16 20 21 18 14 14 15 15 17 20 17 17 20
23 23 24 24 25 25 25 26 26 27 28 29 29 31 32 34 36 37 37 36 34 32 30 28 26 24 22 21 21 19 17 17 18 17 16 17 19 20 19 16 15 15 14 14 14 12 10 9 5 2 2 2 3 5 7 7 7 10 13 13 16 18 15 14 17 18 19 16 11 6 6 8 9 11 14 17 18 17 17 17 16 18 18 20 20 18 19 22
21 21 21 22 22 22 23 23 24 24 25 26 26 28 29 31 32 34 35 36 36 35 33 31 28 26 24 23 23 19 16 17 19 18 17 17 19 20 18 16 15 16 15 14 14 13 12 10 5 3 2 1 2 5 7 7 8 8 11 13 15 18 15 13 17 19 18 16 10 5 6 8 8 10 13 14 16 18 18 18 17 19 20 20 20 19 22 23
19 19 19 19 19 20 20 20 21 21 22 22 23 24 26 28 30 31 33 34 35 36 35 33 31 28 25 25 25 19 15 17 21 18 15 16 18 19 18 15 15 16 16 15 15 14 12 9 6 3 2 1 3 5 6 7 8 8 10 12 14 16 15 13 17 19 19 16 9 4 7 7 6 9 12 14 17 20 20 19 20 20 18 19 20 21 22 22
17 17 17 18 18 18 18 18 18 19 19 19 19 20 22 24 26 29 31 32 33 34 35 34 32 29 27 27 25 21 17 18 22 19 15 16 17 18 17 15 17 17 17 17 16 15 13 10 7 4 2 0 3 4 6 7 7 9 11 13 13 15 16 15 17 19 18 15 9 4 7 8 8 10 13 15 18 21 22 21 21 21 18 19 23 23 22 22
17 17 18 18 18 18 18 17 17 18 18 18 19 19 20 20 22 25 28 31 32 32 33 33 33 30 29 30 26 23 20 18 23 21 16 16 17 18 17 16 18 18 17 17 17 15 13 11 8 5 3 1 3 4 6 6 7 10 11 13 14 15 17 18 18 18 17 14 8 4 6 6 7 10 11 15 20 22 23 22 23 22 19 20 23 24 23 24
17 18 18 19 19 19 19 19 19 18 18 18 18 18 18 18 19 20 24 28 30 31 31 31 32 31 31 31 27 25 23 21 24 21 16 17 18 17 17 17 18 17 17 17 17 15 13 11 8 6 4 2 4 3 5 6 7 9 10 12 13 14 16 18 17 17 18 15 9 5 4 7 8 9 11 16 21 23 24 23 22 21 19 20 23 24 24 24
16 16 17 18 18 18 19 19 20 19 19 18 18 17 17 17 17 17 19 23 27 28 28 29 31 31 32 33 30 29 27 25 25 23 18 18 18 17 17 16 17 18 17 17 16 14 13 11 8 8 6 5 4 1 4 5 7 8 9 11 12 13 15 17 17 15 18 19 13 9 4 8 11 11 12 18 23 24 25 23 22 21 20 23 24 25 24 23
14 15 15 16 16 16 17 18 19 19 18 17 16 16 16 16 16 16 16 19 23 25 26 27 29 31 33 34 33 32 30 27 26 24 20 18 18 17 17 17 18 18 17 17 15 14 13 11 9 9 8 6 3 2 2 5 6 7 8 10 11 12 14 16 17 16 17 19 17 12 5 5 10 12 15 22 26 26 27 24 24 23 21 25 27 27 26 24
13 14 14 14 15 15 15 16 17 18 17 16 15 15 15 15 15 14 13 15 18 20 22 23 27 31 33 35 35 33 31 28 27 26 21 19 18 16 16 18 18 18 17 16 15 15 14 12 11 10 7 5 2 2 3 5 6 8 8 8 11 13 12 13 17 18 17 17 19 15 7 0 5 9 12 20 29 28 27 25 25 24 23 26 29 27 27 25
12 13 13 13 14 14 14 15 15 16 16 15 14 15 15 14 13 12 10 12 14 17 17 19 23 29 32 34 34 32 30 28 27 26 22 19 18 16 17 18 18 17 16 17 16 16 14 13 14 11 8 5 2 2 2 4 6 8 7 8 12 13 12 12 15 19 19 17 19 17 11 6 1 7 8 17 30 30 27 26 25 25 25 27 29 28 27 25
11 11 11 12 12 12 12 13 14 15 15 14 14 15 14 13 12 12 13 14 15 16 16 17 21 25 29 32 32 30 29 29 28 26 22 20 19 16 16 17 17 17 17 17 16 15 14 15 15 12 8 5 2 1 2 3 5 6 8 10 13 12 12 12 14 17 18 20 21 17 12 10 3 5 8 16 28 29 27 27 26 26 26 27 29 30 28 25
10 10 11 11 10 11 11 12 13 13 13 13 14 14 14 13 13 13 14 14 13 14 16 18 19 22 25 28 30 30 29 28 28 26 23 21 19 16 15 16 17 18 18 17 15 15 16 17 15 12 9 6 3 2 1 3 4 7 10 12 12 11 11 12 13 16 17 21 22 15 11 13 7 1 8 18 25 26 27 28 27 28 29 29 30 30 28 25
10 10 10 10 10 10 10 11 11 12 12 13 14 13 13 12 12 11 12 11 10 11 14 18 20 22 23 26 28 28 27 27 27 26 24 21 18 16 16 16 18 19 18 16 15 16 18 17 14 12 9 6 5 4 2 4 6 8 11 12 11 10 11 12 13 16 17 21 22 16 13 13 9 3 7 20 25 25 27 29 28 28 30 31 30 29 28 25
10 10 10 10 10 9 9 10 10 11 12 13 12 11 10 10 9 9 9 9 8 10 13 17 19 20 22 24 25 26 27 26 25 26 24 21 19 18 17 17 18 18 17 16 16 17 18 17 15 12 9 6 6 4 3 4 6 8 9 10 9 9 10 12 14 16 18 20 21 17 15 13 9 5 5 18 25 26 28 28 26 26 29 32 30 28 28 26
9 10 10 10 10 9 9 9 10 10 11 11 10 8 7 7 8 9 9 8 7 9 12 14 15 17 19 21 23 24 25 25 25 25 23 22 20 18 17 19 18 17 16 16 16 18 19 17 16 14 11 8 6 3 2 4 5 5 7 9 8 8 10 13 15 16 17 19 20 17 15 13 10 6 4 15 22 25 27 26 23 26 31 32 29 26 26 26
9 9 10 10 10 9 8 8 9 9 10 9 8 8 7 7 8 9 9 7 6 8 10 13 14 14 16 19 21 23 24 24 25 24 23 23 21 20 19 19 18 16 17 18 19 19 18 16 16 14 11 8 7 4 2 3 2 2 5 10 8 8 10 12 14 15 17 18 18 16 13 13 11 7 3 10 16 21 25 24 23 29 34 32 28 25 24 25
8 9 9 10 10 9 7 7 8 8 9 7 5 6 6 6 7 8 7 7 7 7 9 11 12 12 15 17 19 23 24 24 25 24 23 23 23 22 20 19 17 17 18 18 18 19 18 17 17 15 11 7 5 3 3 1 1 1 5 8 8 7 9 11 12 15 17 15 16 14 11 13 12 7 2 5 10 17 22 22 26 31 32 31 28 24 22 23
8 8 9 10 10 9 7 7 7 7 7 4 3 4 5 9 10 8 7 7 6 6 8 10 11 12 13 14 17 22 24 25 25 24 23 24 24 23 21 19 17 18 20 18 17 20 20 18 15 15 14 9 6 4 5 4 2 3 5 7 7 7 8 10 12 14 15 14 15 13 10 11 12 7 2 4 6 11 17 21 27 30 29 29 28 24 23 23
8 8 8 9 9 8 7 6 7 6 5 2 4 4 6 10 10 8 8 6 5 5 7 9 10 10 9 11 16 20 22 24 26 25 24 25 25 23 22 21 20 20 21 20 19 21 21 20 19 18 15 11 8 7 8 7 5 5 7 6 5 5 7 10 11 11 13 14 15 13 11 10 11 7 4 5 5 8 15 20 26 30 28 28 27 25 24 23
8 8 7 8 9 8 6 6 6 5 3 1 5 6 8 10 10 8 8 7 6 5 6 9 10 10 9 11 15 17 19 22 25 24 24 25 25 24 24 24 23 23 22 20 18 19 20 21 20 17 12 8 6 7 9 8 4 5 6 5 4 5 7 8 9 9 12 14 13 11 11 9 8 7 5 5 5 7 13 20 26 30 30 29 27 26 25 24
9 8 7 8 9 8 6 5 5 4 3 1 5 8 9 12 12 10 9 9 7 6 5 7 10 11 10 11 13 14 17 21 23 23 22 24 25 24 24 24 24 24 23 21 18 18 19 17 15 12 8 4 2 3 6 7 4 3 6 6 6 7 7 7 8 9 12 14 11 10 11 7 5 5 4 3 4 6 13 20 25 27 28 28 28 26 26 25
9 8 7 7 8 8 5 4 4 3 3 3 6 10 11 13 14 13 11 8 7 6 4 5 8 10 10 10 10 11 14 19 21 20 19 21 22 21 21 22 23 23 23 21 19 18 17 15 14 12 9 6 4 0 3 8 8 4 4 6 7 8 8 6 7 9 11 12 9 8 9 5 3 4 3 1 2 6 14 22 25 25 25 26 28 28 27 26
8 8 7 7 8 7 5 4 3 2 3 4 8 11 13 14 14 14 13 10 7 6 4 4 7 8 8 8 9 9 11 15 16 16 15 17 19 20 21 22 22 23 22 22 21 21 20 19 18 15 11 10 10 7 5 8 10 8 6 7 8 8 7 7 9 10 11 11 7 5 5 4 3 4 3 3 2 5 14 25 28 26 25 26 27 29 29 27
8 7 6 6 7 7 4 3 2 1 3 6 9 11 14 14 13 13 12 11 9 6 5 3 4 5 5 5 6 8 10 11 11 11 12 15 17 19 20 22 23 22 23 23 23 22 21 19 17 13 11 8 6 7 8 9 9 9 9 9 9 8 6 7 9 11 10 10 7 1 0 1 2 4 5 5 4 6 13 23 27 27 29 31 31 31 29 27
7 7 6 5 6 7 4 3 1 2 4 7 10 12 13 14 13 10 8 7 7 8 11 10 7 5 4 4 2 5 9 8 8 9 10 12 14 16 18 20 21 22 22 23 21 20 19 16 13 12 13 10 4 2 5 7 7 9 10 10 8 6 6 7 10 11 9 9 6 3 6 4 4 8 9 8 7 7 11 17 24 28 32 34 33 31 29 26
7 7 6 5 6 6 3 2 1 3 5 8 11 14 14 13 12 9 6 5 6 9 13 15 15 13 10 9 7 2 4 8 9 10 10 10 11 13 15 16 18 19 20 20 18 18 17 16 17 17 16 13 9 6 2 3 6 9 10 10 8 6 5 7 9 10 9 9 5 8 11 7 7 11 11 10 8 8 10 13 21 27 30 32 31 30 28 26
7 6 6 4 5 4 3 1 2 4 5 7 11 14 14 13 11 9 8 8 8 8 10 12 13 14 14 14 14 12 5 3 8 8 8 9 9 11 13 13 14 15 16 17 18 17 14 14 18 18 16 14 10 6 4 2 3 6 8 10 9 7 7 8 8 9 9 9 7 11 11 7 8 9 11 11 10 9 9 13 19 22 25 28 29 29 27 25
6 6 5 4 3 3 3 1 3 3 4 7 9 13 14 14 12 10 10 11 11 8 9 9 10 13 14 14 14 13 11 6 3 4 6 7 7 10 12 12 12 12 14 16 17 17 16 14 14 15 15 15 12 10 6 1 3 5 8 12 9 6 8 9 8 8 8 7 9 10 9 9 10 9 10 11 11 11 10 12 16 18 20 23 25 26 26 26
5 5 4 3 3 2 2 1 3 3 5 6 8 11 13 13 12 10 9 12 13 10 10 12 11 11 10 9 9 8 8 8 7 5 2 4 6 9 10 11 12 12 13 15 15 15 16 16 14 14 15 13 12 11 7 2 4 8 10 13 12 9 9 8 5 4 5 6 9 10 8 11 11 9 9 10 11 13 12 12 15 17 19 21 22 23 24 24
6 5 4 3 3 2 1 1 3 3 5 6 7 10 11 13 12 11 12 11 14 12 10 12 12 11 8 4 3 5 5 4 6 7 2 2 5 7 6 5 8 12 12 13 15 15 16 20 20 17 13 13 13 10 6 3 5 10 10 11 13 12 10 9 7 5 6 6 8 8 9 10 9 9 10 10 10 12 12 12 16 19 21 21 22 22 22 22
6 6 5 4 4 2 1 2 2 2 4 5 7 8 11 12 10 11 13 12 14 13 10 11 15 15 12 9 6 5 4 2 3 5 3 4 8 8 4 3 1 7 11 14 16 15 19 24 22 17 17 21 21 15 11 10 5 8 8 6 7 8 7 8 8 7 8 8 7 8 11 12 9 7 10 10 10 11 12 13 16 20 23 23 23 23 22 21
7 6 5 5 5 3 3 3 2 2 3 5 6 6 9 9 5 9 10 12 15 15 13 15 18 18 16 15 12 5 0 3 4 2 1 5 9 8 4 3 4 2 8 13 15 15 22 27 22 21 24 25 23 20 17 14 6 5 9 7 7 7 4 6 7 8 10 10 10 9 12 15 13 8 8 11 10 10 12 13 16 20 23 25 24 24 23 22
7 7 6 5 5 5 5 4 3 2 2 4 3 4 7 8 7 10 11 15 19 21 22 23 24 23 21 20 16 8 5 7 7 5 3 3 6 6 3 1 2 3 5 8 14 17 26 30 25 25 28 22 19 19 17 13 9 6 10 9 8 7 6 7 8 11 12 11 12 11 10 12 12 11 10 9 9 10 13 13 16 20 23 25 25 24 24 23
8 7 7 6 5 6 6 6 6 4 3 3 5 6 8 8 9 11 13 16 21 26 27 26 27 28 25 22 18 13 11 10 8 7 6 5 7 5 3 3 2 1 4 4 11 17 25 32 28 25 26 21 16 16 15 14 13 11 12 9 8 8 9 11 11 13 13 11 13 12 10 10 11 12 14 10 6 10 16 14 14 18 22 24 26 26 25 25
7 7 6 6 5 5 7 8 8 7 6 6 6 7 9 9 10 12 14 17 21 25 26 25 28 30 28 24 22 18 15 13 12 14 13 13 13 11 9 6 2 1 3 6 12 16 20 28 30 26 26 23 18 16 16 14 15 18 16 10 12 14 13 12 10 9 9 11 14 14 12 11 10 11 13 11 7 11 18 17 13 17 21 23 27 28 26 25
7 7 8 7 6 6 7 8 8 7 6 5 4 6 8 9 10 12 15 19 22 23 24 23 25 28 28 26 25 22 18 16 16 19 21 19 16 13 11 6 2 4 6 8 11 16 17 22 31 31 28 27 22 19 20 15 16 23 21 12 13 16 14 10 6 6 8 11 13 14 14 12 10 10 13 13 9 9 16 19 17 18 23 24 27 29 28 27
7 9 9 8 7 6 6 7 7 6 6 5 6 7 8 8 9 11 15 19 21 22 24 23 22 24 26 24 23 25 24 21 20 24 24 21 17 14 12 12 12 13 12 13 13 16 18 22 32 34 30 29 24 20 21 19 20 26 24 16 12 14 14 9 1 7 8 9 10 12 13 12 10 8 9 12 13 8 9 17 20 20 22 24 27 29 28 27
8 10 10 8 9 9 8 8 7 6 6 7 9 9 8 8 8 10 14 16 18 22 25 25 22 22 26 26 26 29 29 24 23 27 26 23 19 15 15 19 20 19 17 17 17 18 19 22 31 35 33 31 27 24 24 23 23 25 25 20 12 9 12 7 0 5 7 8 9 11 10 11 10 7 7 8 12 10 7 12 18 21 22 22 23 26 26 26
8 9 9 9 10 10 9 10 9 9 9 10 12 12 11 11 10 11 13 15 17 21 24 26 27 27 30 31 30 32 32 27 25 27 27 26 21 17 18 22 23 21 21 22 21 21 21 21 26 33 36 34 31 30 28 25 23 24 25 23 15 11 12 8 4 3 6 9 9 8 7 8 8 8 7 7 7 7 8 10 14 21 24 22 21 22 23 25
10 10 9 10 11 11 11 12 12 12 13 13 14 15 14 15 15 15 16 15 17 20 22 25 29 31 32 33 32 33 33 31 28 27 28 27 23 20 21 24 25 23 24 25 24 24 23 22 23 27 34 37 35 33 29 25 24 24 24 21 16 14 13 8 6 6 5 7 9 8 7 6 7 8 7 6 5 4 6 9 11 18 22 22 23 23 23 24
11 11 10 11 12 12 13 14 14 15 16 16 15 15 15 16 17 16 16 16 17 19 21 23 27 30 31 31 32 33 34 34 32 29 28 29 26 22 22 25 27 26 25 24 21 21 22 25 24 23 29 36 38 35 30 28 26 24 23 20 17 17 15 10 9 9 6 6 9 9 6 6 7 8 7 7 6 4 6 8 10 13 17 21 24 24 23 23
12 12 11 12 13 14 14 15 16 17 18 16 15 15 17 18 18 16 15 16 18 19 19 22 25 28 30 31 33 34 34 34 34 31 30 31 30 26 24 27 29 28 26 22 16 14 18 26 28 25 24 30 37 37 32 30 28 25 24 22 20 21 18 13 11 10 7 8 11 8 3 9 12 9 7 8 7 5 5 9 10 11 16 22 23 24 24 24
Wind_Direction
261 260 260 260 260 259 258 257 256 256 256 256 256 257 257 258 259 260 261 262 263 263 264 264 265 266 267 267 267 267 266 265 265 267 268 270 272 275 278 281 284 288 293 294 290 302 337 337 340 350 1 13 23 27 28 22 21 24 20 8 360 4 356 335 312 292 276 258 251 254 256 256 245 218 212 205 209 222 234 246 265 277 288 275 241 217 176 161
261 260 260 260 260 259 259 258 258 257 257 257 257 257 257 258 258 258 259 260 262 263 263 263 264 265 266 266 265 265 264 263 265 266 266 267 268 269 272 274 277 282 287 286 279 278 313 329 332 344 2 19 23 21 15 8 14 20 17 4 352 357 360 342 322 315 300 268 245 247 251 253 247 224 216 210 210 218 226 239 251 276 296 247 208 190 168 163
260 260 260 260 260 260 259 259 258 258 258 258 258 257 257 257 257 257 257 258 260 261 262 263 263 264 265 265 264 263 262 263 264 264 265 265 264 265 266 268 272 276 281 277 267 263 286 317 319 338 6 25 27 17 6 4 13 14 9 357 346 350 356 342 322 321 321 311 270 237 243 249 248 234 224 218 215 213 218 227 227 264 293 187 185 169 162 164
259 259 259 259 259 259 260 260 259 259 258 258 258 258 257 257 256 256 256 256 257 259 260 260 262 264 265 266 265 263 262 262 262 260 261 259 258 261 261 263 267 270 273 266 260 255 257 296 306 347 15 22 22 15 11 12 14 10 4 357 347 342 339 337 324 321 324 321 310 228 238 242 240 234 229 224 222 214 209 211 203 225 167 152 160 153 154 161
258 258 258 258 258 258 258 259 259 260 259 259 259 259 258 257 257 256 255 255 255 257 258 258 259 261 263 266 266 265 263 261 258 255 256 255 254 256 256 258 262 264 263 259 255 247 244 270 304 7 23 16 15 16 13 7 5 3 2 4 357 343 327 325 321 317 319 322 334 227 233 233 228 228 222 219 225 222 211 205 190 189 166 146 150 152 151 157
258 258 258 258 258 258 258 258 258 258 259 259 258 258 258 258 257 256 255 254 254 255 256 257 257 258 260 262 265 266 264 260 258 252 252 253 252 252 253 254 255 257 257 253 248 242 242 261 313 23 19 7 15 14 12 6 2 0 1 9 8 1 342 327 323 320 321 325 339 274 233 220 215 222 217 212 219 223 217 211 192 180 172 156 154 154 150 154
260 259 259 259 259 259 258 258 258 258 257 257 257 257 257 257 257 256 256 254 253 254 255 255 255 255 257 259 261 263 262 262 263 257 252 251 250 250 249 251 252 254 253 247 242 236 227 237 286 32 3 13 16 3 8 12 8 3 1 7 9 10 2 345 337 333 325 319 325 291 243 221 208 219 218 210 212 216 215 210 194 178 174 169 160 155 153 155
262 261 261 260 259 259 259 258 258 258 257 256 255 254 254 255 255 255 254 254 253 252 253 253 253 253 254 256 256 258 262 266 265 258 251 248 248 248 247 247 250 252 250 242 237 230 217 215 212 160 21 26 17 355 357 6 14 12 6 7 7 5 356 349 345 339 330 317 318 301 254 234 210 215 217 212 207 210 214 205 188 178 172 172 167 159 157 156
264 263 262 261 260 260 259 259 258 258 257 256 254 253 252 252 252 252 252 252 252 251 251 252 251 250 250 252 253 255 258 258 258 253 246 244 244 246 245 244 246 248 244 236 235 229 220 215 212 191 56 30 4 358 357 1 13 14 11 9 6 1 351 348 347 340 336 326 321 309 259 239 218 212 214 211 202 203 210 201 183 182 176 173 170 161 157 155
266 265 264 263 262 261 261 260 259 259 258 257 255 253 252 251 250 250 249 249 249 249 249 249 248 247 247 248 250 251 251 250 253 252 244 241 241 242 242 241 243 244 238 232 231 223 215 214 214 181 85 22 355 357 358 358 1 6 8 8 6 2 356 354 350 342 340 336 327 312 251 233 226 213 210 209 201 198 201 192 180 180 176 173 170 161 155 153
268 267 267 266 264 263 262 261 261 260 259 258 257 255 253 252 250 248 247 247 246 245 245 246 245 244 243 244 245 245 248 249 250 250 244 239 239 241 240 238 240 241 235 228 225 215 206 210 210 159 107 28 353 354 1 355 351 4 9 10 6 1 0 1 355 347 345 342 328 301 238 226 226 215 212 209 199 194 195 188 180 176 173 175 173 164 157 155
270 269 268 267 267 266 265 263 262 261 261 260 259 258 256 253 251 248 246 245 243 242 241 241 240 240 239 240 242 241 243 247 247 249 247 242 240 241 238 234 235 236 231 224 222 214 205 208 199 155 130 66 346 2 11 354 345 3 17 17 5 357 358 1 357 352 351 348 330 284 238 223 218 214 214 211 196 188 191 190 182 175 173 177 176 168 160 157
270 269 268 268 268 268 268 267 265 264 262 262 261 260 259 256 252 249 246 244 242 240 239 237 236 236 234 236 239 236 230 239 246 244 245 245 242 241 236 229 231 232 228 221 218 214 206 202 186 168 155 77 340 2 12 352 348 1 17 18 3 359 3 2 360 358 359 353 331 255 236 230 212 210 210 209 196 184 186 188 183 178 174 175 176 172 163 157
269 268 268 268 269 269 270 270 269 267 265 264 264 264 263 260 256 251 246 243 241 240 237 235 234 232 231 232 234 231 223 230 243 240 236 240 240 241 235 225 227 228 225 221 218 213 201 194 183 181 192 53 327 353 5 353 7 13 13 12 3 8 12 7 4 3 7 359 333 256 234 234 217 214 208 202 195 184 184 184 182 181 174 172 175 170 161 157
269 268 268 268 268 269 270 271 271 270 267 266 266 266 267 266 262 254 248 243 240 239 236 233 231 228 228 230 229 228 222 223 239 239 234 238 237 238 232 224 226 226 224 222 219 211 197 192 183 183 186 134 307 337 5 355 15 16 9 10 8 14 16 11 8 8 11 2 337 282 235 221 215 220 210 199 192 185 185 185 182 180 174 172 174 166 160 160
274 272 270 269 269 269 270 271 271 269 268 266 266 270 273 274 271 263 252 244 239 237 235 231 229 225 225 228 225 224 220 218 233 235 229 235 235 234 230 225 228 227 224 221 218 209 197 196 187 182 174 177 273 324 18 358 5 10 5 7 11 18 18 14 11 13 12 3 349 322 242 197 201 220 214 200 192 186 187 186 183 180 174 173 171 163 162 163
281 279 276 273 272 271 270 269 267 266 267 268 270 274 278 281 282 275 261 248 240 235 233 230 226 223 223 225 221 221 220 217 228 231 224 229 232 230 226 223 226 225 222 220 216 205 196 198 196 188 180 198 244 346 31 355 357 6 5 2 7 15 15 14 11 12 16 11 3 349 292 200 202 220 217 201 194 190 186 185 186 185 178 176 171 164 164 163
289 287 282 278 275 273 270 267 265 265 266 270 274 277 281 286 290 286 270 253 241 234 231 228 224 221 221 222 219 219 218 215 223 228 223 226 229 227 223 220 223 223 220 218 212 201 194 192 195 198 193 206 218 81 13 340 357 4 3 356 1 10 9 12 7 2 14 17 12 5 344 205 203 221 216 197 191 190 184 181 187 188 179 174 169 165 165 163
295 293 288 283 278 274 272 270 268 266 267 271 275 277 280 284 290 291 277 259 246 236 232 229 226 223 221 221 220 219 219 215 220 225 222 223 227 225 221 221 223 222 218 214 207 198 194 192 199 203 196 208 191 96 338 334 359 354 352 355 1 5 5 7 1 356 5 12 14 16 10 33 207 233 227 195 186 184 179 178 183 183 177 172 166 164 166 163
297 297 292 286 281 277 275 273 270 267 268 272 276 277 275 275 283 283 262 244 238 233 230 231 229 226 222 221 221 221 220 218 220 224 221 222 225 223 220 221 223 222 216 213 205 196 195 199 204 204 193 193 153 117 299 338 11 348 343 6 4 357 359 2 355 358 6 4 5 9 8 13 244 247 245 194 182 178 176 178 180 178 177 172 164 164 166 164
302 304 299 292 286 282 278 275 271 269 269 273 276 275 268 264 270 264 241 228 226 220 216 222 228 228 224 221 220 220 220 220 221 223 220 220 223 222 221 220 222 221 216 213 205 193 196 203 204 203 193 169 108 142 266 349 13 346 346 7 3 349 352 0 356 359 7 3 358 359 1 7 17 229 233 190 179 179 176 175 176 173 174 174 164 164 167 165
311 314 311 304 295 287 282 278 275 272 271 274 275 271 261 258 267 262 242 230 230 223 215 217 222 225 223 221 219 218 219 221 223 223 220 219 221 222 222 221 220 220 217 212 200 188 197 204 203 202 189 153 130 201 255 7 359 354 357 0 357 347 350 3 2 2 6 3 360 1 2 1 10 174 204 188 179 177 172 170 175 171 170 172 166 165 167 164
318 321 319 315 306 295 289 284 280 276 274 276 275 270 261 262 271 262 238 225 230 229 221 221 221 221 218 217 217 217 217 220 224 225 221 219 218 218 220 221 221 221 218 209 194 191 200 203 205 211 203 178 181 193 120 28 4 8 1 353 350 341 346 2 8 9 10 5 3 4 6 5 7 25 187 185 177 173 172 173 176 175 171 169 168 167 164 161
323 324 323 322 315 304 295 289 285 281 280 281 277 270 264 267 263 240 220 217 226 226 223 225 225 222 218 214 213 215 215 215 220 225 223 220 219 216 216 220 222 220 217 207 194 194 202 200 201 211 211 203 202 189 101 41 13 9 352 341 341 328 340 4 7 10 11 5 4 3 4 11 13 19 173 182 178 177 183 183 179 178 172 165 168 170 162 158
324 327 326 326 323 312 300 294 290 287 287 285 275 259 246 251 239 211 204 214 227 231 227 226 225 224 221 214 210 212 213 213 216 220 221 221 220 216 215 220 222 218 215 207 193 195 204 203 203 209 210 202 192 175 100 53 18 0 328 319 324 320 338 0 0 1 4 1 1 2 3 11 16 27 144 181 184 183 185 184 179 173 167 163 168 172 163 159
325 329 329 330 330 319 305 300 296 295 295 287 268 250 234 229 220 201 199 217 232 233 227 223 220 219 218 213 210 209 209 210 213 214 217 219 219 216 214 219 222 217 214 209 197 195 201 206 211 217 217 198 176 174 145 75 41 341 302 301 308 326 340 349 350 350 353 354 357 0 5 10 14 28 99 176 188 188 183 180 174 167 163 162 167 172 167 162
327 329 331 334 335 325 312 306 303 304 301 284 257 252 229 195 195 196 201 226 235 226 218 219 215 212 214 211 208 207 206 208 212 211 212 215 217 217 214 217 221 219 218 214 204 199 201 206 213 217 215 196 161 168 201 157 52 288 285 293 308 334 336 335 344 349 347 349 358 0 3 10 13 20 55 175 187 190 185 176 168 166 163 162 165 170 171 165
331 331 332 336 338 332 321 315 314 316 309 277 223 243 217 174 173 192 206 219 222 212 209 211 209 208 212 210 207 208 207 207 209 208 210 214 215 216 215 214 217 221 221 215 205 203 205 206 211 216 213 194 152 163 219 226 232 256 274 296 322 335 325 327 344 352 350 350 359 360 357 9 16 24 75 170 182 188 188 176 167 166 165 164 166 168 169 168
337 335 334 339 344 339 330 327 326 327 320 259 184 188 197 172 167 189 202 194 188 195 201 204 206 203 200 205 209 209 208 209 209 205 207 213 215 214 216 213 212 219 223 217 210 210 208 204 208 212 211 202 180 189 219 230 237 257 271 289 317 322 313 325 343 355 357 352 353 354 348 1 17 31 87 136 160 180 188 178 166 168 170 167 166 167 169 169
343 338 338 345 347 344 337 337 339 339 348 227 175 170 185 176 164 175 178 163 158 169 186 195 201 194 182 199 210 207 206 211 213 208 207 212 214 213 216 215 213 218 223 219 216 221 219 216 218 220 222 226 210 201 218 227 242 263 260 266 283 293 301 320 335 350 359 354 348 347 341 350 18 36 73 114 139 172 188 182 171 170 173 170 167 168 168 168
346 342 344 350 351 351 345 347 350 352 30 119 174 168 179 177 162 157 157 163 168 163 181 200 200 192 187 201 209 205 206 211 213 211 211 215 216 214 216 219 218 220 225 222 216 223 229 231 237 241 247 252 148 146 211 207 179 215 246 256 265 278 290 307 328 341 354 355 349 346 342 340 8 33 55 102 133 168 186 185 178 174 174 171 168 168 168 168
347 345 347 354 356 357 352 0 3 6 63 123 171 168 176 178 165 154 147 159 171 155 172 219 209 194 191 206 211 204 208 213 213 212 213 219 222 219 218 223 224 223 226 227 221 221 228 231 234 237 240 231 205 223 233 202 184 180 243 260 268 283 293 308 336 339 341 351 351 342 344 340 1 40 60 85 132 169 180 178 175 173 173 173 171 168 169 170
347 346 349 355 0 360 359 18 19 34 104 149 173 175 183 183 177 172 157 148 151 143 157 217 219 199 184 203 215 210 214 217 215 211 208 214 223 224 222 222 225 226 226 228 225 221 220 224 226 229 229 228 237 254 254 219 203 191 209 245 265 284 303 326 338 325 323 344 346 325 346 6 29 70 127 171 147 164 175 172 171 172 170 172 175 173 171 172
348 346 349 357 3 2 10 38 41 96 140 165 175 182 186 178 180 186 168 152 149 130 112 132 213 205 180 190 209 216 222 223 221 213 202 203 214 221 223 223 223 224 226 226 227 224 222 226 232 233 226 225 243 246 240 238 229 221 232 250 262 276 306 324 317 306 314 342 346 307 149 38 51 89 130 144 129 142 168 174 176 175 171 172 178 178 173 172
349 346 348 358 8 5 17 54 85 160 167 173 177 184 183 174 176 177 160 149 146 126 105 93 98 114 127 140 161 224 230 226 222 215 203 200 207 214 221 225 223 223 226 228 228 227 225 223 223 222 213 200 162 171 230 241 235 231 242 252 250 266 302 299 294 298 309 332 344 175 192 207 128 102 110 115 114 128 154 174 182 179 175 174 177 176 173 173
347 347 345 357 10 3 19 68 147 184 187 184 181 182 181 182 189 191 182 160 144 137 117 99 98 98 98 107 92 38 252 234 230 222 211 201 202 209 214 223 224 222 225 228 227 227 224 219 217 215 203 182 141 106 116 205 222 226 232 242 244 252 281 281 289 301 301 313 302 203 206 202 134 116 114 112 110 122 139 164 178 179 175 173 172 172 171 173
345 344 340 356 6 357 21 64 198 196 204 197 188 188 189 190 193 201 201 165 129 127 120 110 114 110 101 102 85 56 37 245 236 232 223 205 198 205 204 211 222 220 219 219 222 221 211 213 225 219 197 174 155 139 128 147 235 242 231 238 251 257 264 269 287 294 285 290 274 227 215 190 153 142 135 126 115 113 127 150 168 176 175 173 172 171 171 174
341 341 337 352 349 349 26 337 235 208 213 207 198 198 196 191 190 199 198 164 136 135 149 151 147 130 114 107 93 63 40 15 322 258 234 203 187 202 203 201 207 212 212 210 215 215 197 196 223 217 192 185 183 171 164 208 306 300 250 235 236 240 249 254 268 282 279 277 272 257 227 183 168 164 156 148 135 124 129 146 161 170 172 174 176 175 175 177
329 333 331 336 315 336 35 305 260 224 212 208 207 208 201 197 199 215 218 180 163 172 183 182 168 134 109 97 94 73 39 10 11 20 268 202 175 192 203 203 201 203 209 207 207 211 194 179 188 195 186 193 193 166 153 235 320 323 281 245 232 234 248 253 252 279 299 276 265 261 228 187 176 177 175 172 156 140 139 150 160 167 172 177 181 182 182 182
316 321 326 319 288 308 26 298 282 253 228 211 212 215 206 201 205 228 249 220 191 195 199 185 162 134 118 116 112 78 50 352 355 21 16 193 155 156 171 193 201 200 204 205 202 199 181 164 170 183 180 180 178 147 142 220 313 316 280 241 234 241 252 258 256 279 302 285 261 247 221 200 196 193 184 181 171 152 150 164 168 166 170 178 182 184 185 185
304 311 319 312 289 287 284 276 283 262 240 216 211 215 207 201 209 240 250 227 202 201 194 173 156 151 163 165 133 77 42 309 318 0 15 137 121 110 95 59 135 201 197 197 200 191 171 161 166 178 175 176 176 164 176 204 261 289 245 213 249 261 265 268 269 279 283 279 269 246 232 236 239 206 172 169 176 164 159 176 181 172 168 172 179 182 182 184
292 297 305 307 297 282 258 258 259 254 258 239 221 215 212 208 241 259 224 186 188 191 177 166 163 170 180 162 132 109 168 161 144 56 31 148 128 111 110 59 25 264 207 193 193 183 169 166 169 173 171 176 180 176 185 190 188 233 209 201 256 275 298 287 279 282 274 270 273 262 250 251 252 236 181 164 172 182 177 184 190 182 172 169 174 179 180 181
283 288 300 306 299 282 264 256 247 244 293 275 231 198 208 214 239 246 205 170 174 177 171 170 173 179 180 164 149 149 144 124 122 102 76 155 149 119 137 179 21 313 260 202 186 179 176 174 173 170 168 170 175 177 187 181 160 201 218 211 232 262 292 289 289 290 278 268 270 271 264 252 249 256 239 196 179 196 197 192 190 185 177 171 171 174 177 179
288 292 302 305 302 291 273 253 241 229 208 212 198 180 195 209 213 214 196 176 172 170 171 177 180 182 181 173 167 162 141 130 138 140 131 157 161 148 203 229 171 254 290 222 179 177 180 179 177 174 171 172 172 173 183 174 161 188 213 214 218 236 261 278 295 297 286 274 267 265 266 258 251 259 254 237 212 204 198 189 183 181 176 172 170 168 171 175
303 296 290 287 287 285 273 259 254 249 226 207 200 187 189 199 198 193 186 182 178 172 174 182 185 184 184 181 180 172 154 154 166 170 179 190 185 181 194 198 159 169 259 217 181 174 178 181 183 181 175 172 167 168 179 174 167 180 190 207 227 225 233 258 283 296 289 275 266 264 266 265 262 261 257 253 250 219 203 188 175 177 176 173 170 165 165 169
302 281 267 264 266 271 275 275 274 270 255 231 217 204 196 197 202 201 189 183 184 182 180 186 189 189 188 186 187 183 171 172 177 175 184 197 195 186 178 175 235 267 253 243 205 183 181 185 187 185 177 171 168 179 190 183 174 179 177 187 222 223 221 236 276 317 301 279 274 274 272 271 274 273 267 257 250 236 211 195 183 179 176 175 171 165 164 167
289 277 271 268 264 261 263 270 275 274 263 238 223 219 215 211 210 217 210 196 190 189 189 192 196 196 194 192 194 191 184 184 184 178 182 187 186 185 178 181 215 233 241 263 252 213 200 194 190 188 183 177 176 189 195 185 177 181 178 180 209 226 220 212 343 342 311 289 284 279 271 270 278 288 284 257 244 254 224 194 188 186 178 178 178 171 166 169
291 286 285 279 267 261 258 257 259 256 241 227 227 226 225 221 204 209 226 222 203 192 193 200 205 202 199 198 198 194 191 193 190 182 180 177 178 189 188 186 205 220 223 238 248 236 223 208 195 189 185 183 182 186 188 184 181 183 182 181 189 218 226 215 331 333 317 304 289 284 281 279 278 292 310 270 247 261 249 201 196 194 185 182 184 177 172 173
296 287 286 281 271 266 262 257 253 246 228 215 222 226 221 217 206 203 222 228 213 199 195 201 204 202 201 201 197 192 194 199 195 186 181 178 182 195 196 194 203 212 216 221 231 237 234 224 209 194 186 186 186 184 186 186 185 185 185 184 186 211 229 227 209 253 304 304 289 287 291 284 272 271 288 284 270 271 255 225 206 194 188 188 188 185 183 182
298 289 283 278 273 267 260 256 253 250 239 227 227 229 224 219 216 215 217 218 216 211 203 201 202 201 204 204 197 193 197 202 200 193 186 185 191 199 202 203 202 207 219 227 236 241 228 221 223 207 192 191 190 188 189 189 186 184 182 183 191 208 220 225 221 233 276 300 298 297 295 288 272 265 272 272 271 268 239 222 198 186 189 194 194 193 196 193
297 294 286 277 273 268 263 261 257 254 252 250 249 246 240 235 234 231 222 216 221 222 213 208 208 207 210 211 203 197 200 203 203 198 190 187 193 200 206 208 207 211 222 230 241 246 223 209 220 219 202 198 198 195 193 192 189 184 182 186 193 195 196 207 225 236 251 273 283 292 315 322 287 267 272 261 235 217 217 218 204 189 190 193 193 198 206 207
291 291 287 281 276 272 268 264 260 258 259 260 261 257 252 249 249 247 233 220 224 229 223 216 216 215 218 218 212 205 204 205 204 202 197 192 192 197 203 206 209 216 225 227 232 242 225 210 213 220 214 203 201 201 198 195 195 190 187 195 198 192 188 191 206 223 237 249 254 257 307 314 294 277 279 271 246 216 204 215 219 203 188 188 192 200 208 213
Height
5878 5878 5879 5879 5880 5880 5880 5881 5881 5881 5882 5882 5882 5883 5883 5883 5884 5884 5885 5886 5886 5887 5887 5888 5888 5889 5889 5890 5890 5891 5891 5891 5890 5891 5892 5893 5894 5893 5893 5894 5893 5893 5893 5893 5893 5893 5893 5892 5892 5891 5891 5891 5891 5891 5891 5890 5889 5889 5888 5888 5887 5887 5886 5886 5886 5886 5886 5887 5887 5886 5885 5887 5889 5889 5888 5889 5889 5888 5887 5889 5891 5890 5890 5889 5890 5892 5895 5898
5875 5876 5876 5877 5877 5877 5878 5878 5878 5879 5879 5879 5880 5880 5881 5881 5882 5882 5883 5884 5884 5884 5885 5886 5886 5886 5887 5887 5888 5888 5889 5888 5888 5890 5890 5891 5892 5892 5892 5892 5892 5892 5892 5892 5892 5892 5892 5892 5892 5891 5891 5891 5891 5891 5890 5889 5889 5888 5888 5888 5887 5886 5886 5886 5886 5885 5886 5887 5886 5884 5882 5884 5886 5886 5886 5887 5888 5887 5886 5888 5890 5889 5889 5889 5890 5892 5895 5898
5873 5873 5873 5874 5874 5874 5875 5875 5876 5876 5876 5877 5877 5878 5878 5879 5880 5880 5881 5882 5882 5882 5883 5883 5884 5884 5885 5885 5885 5886 5886 5886 5887 5888 5888 5890 5890 5890 5890 5890 5890 5891 5891 5891 5891 5892 5892 5892 5892 5891 5891 5892 5892 5891 5891 5890 5889 5888 5888 5888 5886 5885 5885 5885 5885 5884 5884 5885 5885 5883 5881 5882 5884 5884 5885 5886 5887 5887 5887 5887 5889 5889 5889 5890 5891 5893 5896 5898
5870 5870 5870 5871 5871 5872 5872 5872 5873 5873 5874 5874 5875 5875 5876 5876 5877 5878 5879 5880 5880 5880 5881 5881 5882 5883 5883 5883 5883 5884 5884 5883 5885 5886 5886 5887 5888 5888 5889 5889 5889 5890 5890 5890 5890 5891 5891 5892 5891 5891 5891 5891 5891 5891 5891 5890 5890 5889 5888 5887 5886 5885 5885 5885 5884 5882 5883 5884 5884 5883 5882 5882 5882 5883 5884 5886 5886 5886 5886 5886 5888 5889 5889 5890 5892 5894 5896 5898
5866 5867 5867 5868 5868 5868 5869 5869 5870 5870 5871 5872 5872 5872 5873 5873 5874 5875 5876 5877 5878 5878 5878 5879 5880 5881 5881 5881 5881 5882 5882 5881 5883 5884 5884 5885 5886 5886 5887 5887 5888 5888 5889 5889 5889 5890 5890 5891 5891 5891 5891 5891 5891 5890 5890 5889 5889 5888 5888 5886 5885 5884 5883 5883 5882 5881 5881 5882 5883 5883 5881 5881 5881 5882 5883 5884 5885 5885 5885 5885 5887 5889 5890 5891 5892 5895 5897 5899
5863 5863 5864 5864 5864 5865 5865 5866 5866 5867 5868 5868 5869 5869 5870 5870 5871 5872 5874 5875 5875 5876 5876 5877 5878 5879 5879 5879 5880 5880 5880 5879 5880 5882 5882 5883 5884 5884 5885 5886 5886 5887 5887 5888 5889 5889 5890 5890 5890 5890 5891 5891 5890 5890 5889 5888 5888 5887 5886 5885 5884 5883 5882 5881 5880 5880 5879 5878 5880 5880 5878 5879 5880 5880 5881 5882 5882 5883 5884 5884 5886 5889 5890 5890 5892 5895 5897 5899
5859 5859 5859 5860 5860 5861 5861 5862 5863 5863 5864 5865 5865 5866 5867 5867 5868 5869 5871 5872 5873 5873 5874 5875 5876 5877 5877 5878 5878 5878 5878 5878 5878 5880 5881 5881 5882 5882 5883 5884 5885 5886 5886 5887 5888 5888 5889 5889 5889 5890 5890 5890 5889 5889 5888 5888 5887 5886 5885 5884 5883 5883 5882 5881 5880 5879 5877 5876 5877 5877 5875 5877 5879 5879 5878 5878 5879 5882 5884 5884 5887 5889 5890 5891 5892 5894 5896 5898
5855 5855 5855 5856 5856 5857 5857 5858 5858 5859 5860 5861 5861 5862 5863 5864 5865 5866 5867 5869 5870 5871 5871 5872 5874 5875 5875 5875 5876 5876 5876 5877 5877 5878 5879 5880 5880 5880 5881 5883 5884 5884 5885 5886 5886 5887 5888 5888 5888 5889 5890 5890 5889 5888 5888 5887 5887 5886 5885 5883 5883 5883 5881 5881 5880 5878 5877 5876 5876 5875 5873 5875 5878 5877 5876 5877 5879 5883 5884 5884 5887 5889 5889 5890 5892 5893 5895 5898
5852 5851 5852 5852 5852 5853 5853 5854 5854 5855 5855 5856 5857 5858 5859 5860 5861 5863 5864 5865 5867 5868 5868 5870 5871 5873 5873 5873 5874 5874 5875 5875 5875 5876 5877 5878 5878 5878 5879 5881 5882 5883 5884 5885 5885 5887 5888 5887 5888 5889 5889 5889 5889 5888 5887 5887 5886 5885 5885 5884 5883 5883 5882 5880 5879 5878 5876 5875 5874 5874 5873 5873 5875 5875 5875 5876 5878 5880 5882 5885 5887 5887 5887 5889 5891 5893 5895 5897
5848 5848 5848 5848 5849 5849 5849 5850 5850 5851 5851 5852 5852 5853 5854 5855 5857 5858 5860 5862 5863 5864 5865 5867 5869 5870 5871 5871 5872 5872 5873 5873 5873 5874 5875 5876 5876 5876 5878 5880 5881 5882 5883 5883 5884 5886 5886 5887 5888 5888 5889 5889 5888 5888 5888 5887 5886 5885 5885 5884 5884 5883 5881 5880 5878 5877 5875 5874 5873 5872 5871 5871 5871 5873 5874 5874 5875 5877 5881 5885 5886 5885 5885 5888 5890 5892 5895 5897
5845 5845 5845 5845 5845 5846 5846 5846 5847 5847 5847 5848 5848 5849 5850 5851 5852 5854 5855 5857 5859 5861 5862 5864 5866 5867 5868 5869 5869 5870 5871 5872 5871 5872 5873 5874 5874 5874 5876 5879 5879 5880 5881 5882 5883 5885 5885 5886 5887 5888 5888 5888 5888 5888 5888 5887 5886 5886 5885 5884 5883 5882 5881 5880 5878 5876 5874 5873 5872 5871 5870 5869 5870 5871 5871 5872 5875 5878 5881 5883 5884 5884 5884 5885 5888 5891 5894 5897
5843 5843 5843 5843 5843 5843 5843 5843 5844 5844 5844 5844 5845 5845 5846 5847 5848 5849 5851 5853 5854 5856 5858 5860 5862 5864 5866 5866 5866 5869 5870 5869 5869 5870 5871 5872 5872 5873 5875 5877 5878 5878 5879 5881 5882 5883 5884 5884 5886 5887 5887 5887 5887 5887 5888 5887 5886 5886 5885 5884 5882 5881 5880 5879 5878 5875 5873 5871 5871 5870 5868 5868 5870 5870 5871 5872 5874 5876 5879 5881 5883 5883 5883 5884 5888 5891 5894 5896
5840 5840 5840 5840 5840 5840 5840 5840 5841 5841 5841 5841 5842 5842 5842 5843 5844 5845 5846 5848 5850 5852 5854 5857 5859 5861 5863 5863 5864 5867 5869 5867 5867 5869 5870 5871 5871 5871 5873 5875 5876 5876 5877 5879 5880 5881 5882 5883 5885 5886 5886 5887 5886 5887 5887 5886 5886 5885 5884 5884 5883 5881 5880 5878 5877 5874 5871 5870 5869 5868 5867 5867 5869 5869 5869 5871 5872 5873 5876 5879 5881 5883 5883 5885 5888 5891 5894 5896
5838 5838 5838 5838 5838 5838 5838 5838 5838 5838 5838 5839 5839 5839 5839 5839 5840 5841 5842 5844 5845 5847 5850 5853 5855 5858 5860 5860 5862 5865 5866 5866 5865 5866 5868 5869 5869 5870 5872 5873 5873 5874 5876 5877 5878 5880 5881 5883 5884 5885 5885 5886 5885 5886 5887 5886 5885 5884 5883 5883 5882 5880 5879 5877 5875 5873 5871 5869 5868 5867 5866 5867 5868 5867 5867 5870 5871 5872 5875 5877 5880 5882 5883 5885 5888 5891 5893 5896
5836 5836 5836 5836 5836 5836 5836 5836 5836 5836 5836 5836 5836 5836 5836 5837 5837 5837 5838 5840 5841 5843 5846 5849 5852 5855 5856 5856 5860 5862 5864 5865 5862 5864 5867 5867 5868 5868 5870 5871 5871 5872 5874 5875 5877 5879 5880 5882 5884 5884 5884 5884 5884 5885 5885 5884 5884 5883 5883 5883 5881 5879 5878 5876 5875 5873 5871 5870 5868 5867 5866 5866 5866 5866 5867 5869 5870 5871 5873 5876 5878 5880 5881 5884 5887 5890 5892 5895
5834 5834 5834 5833 5833 5833 5833 5834 5833 5833 5833 5833 5833 5834 5834 5834 5834 5834 5835 5836 5838 5840 5842 5845 5848 5851 5852 5853 5857 5859 5860 5861 5860 5862 5865 5865 5866 5867 5868 5870 5870 5871 5873 5874 5876 5878 5879 5881 5883 5884 5883 5883 5884 5884 5884 5883 5883 5883 5882 5882 5881 5879 5877 5876 5875 5873 5871 5870 5868 5866 5865 5865 5865 5865 5866 5867 5868 5870 5872 5874 5877 5879 5881 5883 5886 5888 5891 5894
5832 5831 5831 5831 5831 5831 5831 5831 5831 5830 5830 5831 5831 5831 5831 5831 5831 5831 5832 5833 5834 5837 5839 5841 5844 5847 5848 5850 5853 5854 5856 5858 5858 5860 5862 5862 5864 5865 5867 5868 5868 5869 5871 5872 5875 5877 5878 5880 5882 5883 5883 5883 5883 5884 5883 5883 5882 5882 5881 5881 5880 5879 5877 5876 5874 5873 5872 5870 5868 5866 5865 5864 5864 5864 5865 5866 5867 5869 5871 5874 5877 5878 5880 5882 5885 5888 5890 5894
5830 5829 5829 5828 5828 5828 5828 5828 5828 5828 5828 5829 5829 5829 5829 5829 5829 5829 5829 5830 5831 5834 5836 5838 5841 5843 5844 5845 5848 5850 5852 5855 5856 5857 5860 5861 5862 5863 5865 5866 5866 5867 5869 5871 5874 5875 5877 5878 5880 5881 5881 5882 5883 5883 5882 5882 5881 5881 5880 5879 5879 5878 5877 5875 5874 5873 5872 5871 5869 5867 5865 5863 5863 5863 5863 5864 5866 5868 5870 5873 5876 5878 5881 5882 5884 5887 5890 5893
5828 5827 5827 5826 5826 5826 5825 5825 5825 5826 5826 5827 5827 5827 5827 5827 5827 5827 5827 5828 5830 5831 5833 5836 5837 5838 5840 5842 5844 5847 5849 5853 5854 5855 5858 5860 5860 5862 5863 5864 5865 5866 5868 5870 5872 5874 5875 5877 5878 5879 5880 5881 5882 5882 5881 5881 5880 5880 5879 5878 5878 5878 5876 5875 5874 5873 5871 5871 5870 5868 5866 5864 5863 5862 5862 5863 5864 5867 5870 5873 5875 5878 5881 5882 5884 5886 5889 5893
5826 5825 5825 5824 5824 5823 5824 5823 5823 5823 5824 5824 5825 5825 5825 5825 5825 5825 5825 5826 5827 5829 5832 5834 5835 5835 5837 5840 5842 5846 5849 5852 5853 5853 5856 5858 5859 5861 5862 5863 5864 5865 5867 5869 5870 5872 5874 5875 5876 5878 5879 5880 5880 5880 5880 5880 5879 5879 5878 5877 5877 5877 5876 5875 5874 5873 5871 5870 5870 5868 5866 5864 5862 5861 5861 5862 5863 5866 5870 5873 5875 5877 5880 5882 5883 5886 5889 5892
5824 5824 5823 5822 5822 5822 5822 5821 5821 5821 5822 5822 5822 5822 5822 5822 5823 5823 5822 5823 5824 5826 5829 5830 5831 5832 5835 5838 5841 5844 5847 5849 5850 5852 5854 5856 5857 5859 5861 5862 5863 5864 5866 5867 5869 5872 5873 5874 5875 5876 5878 5879 5879 5880 5879 5879 5878 5878 5877 5876 5877 5877 5876 5876 5875 5873 5872 5871 5869 5868 5866 5864 5863 5861 5860 5862 5863 5866 5869 5872 5874 5876 5879 5883 5884 5886 5889 5892
5823 5822 5821 5821 5820 5820 5819 5819 5819 5819 5820 5820 5820 5820 5820 5820 5820 5820 5820 5821 5823 5825 5826 5827 5828 5829 5832 5836 5839 5842 5844 5847 5848 5850 5853 5854 5856 5858 5859 5861 5862 5863 5864 5866 5869 5871 5871 5872 5873 5875 5876 5877 5878 5879 5879 5878 5877 5877 5876 5876 5877 5876 5875 5876 5875 5873 5872 5871 5869 5868 5866 5864 5863 5862 5861 5862 5864 5866 5869 5871 5873 5875 5878 5882 5884 5885 5888 5892
5822 5821 5820 5819 5818 5818 5818 5817 5817 5817 5818 5818 5817 5817 5818 5818 5819 5819 5819 5821 5823 5824 5825 5825 5825 5827 5830 5833 5836 5840 5843 5845 5847 5848 5851 5853 5855 5857 5858 5859 5860 5861 5863 5865 5868 5869 5869 5871 5873 5874 5875 5875 5876 5877 5877 5876 5876 5875 5875 5876 5876 5875 5875 5875 5874 5873 5872 5871 5869 5867 5866 5865 5863 5862 5861 5862 5863 5866 5868 5870 5872 5875 5877 5881 5884 5886 5888 5891
5820 5819 5819 5818 5817 5817 5816 5816 5816 5816 5816 5816 5815 5815 5816 5817 5817 5818 5819 5820 5821 5822 5823 5823 5824 5826 5828 5831 5834 5838 5840 5842 5845 5846 5849 5852 5854 5856 5857 5858 5858 5860 5862 5864 5867 5867 5867 5869 5871 5872 5874 5875 5875 5875 5875 5875 5875 5875 5876 5876 5876 5875 5874 5874 5873 5873 5872 5871 5870 5868 5866 5865 5864 5862 5862 5863 5864 5865 5868 5869 5871 5874 5877 5880 5884 5887 5887 5889
5819 5818 5817 5817 5816 5815 5815 5814 5814 5814 5814 5814 5813 5814 5815 5816 5816 5817 5818 5819 5820 5821 5822 5822 5824 5825 5827 5830 5833 5834 5837 5840 5843 5845 5847 5850 5852 5854 5856 5856 5857 5859 5861 5863 5865 5866 5866 5868 5870 5870 5872 5873 5873 5873 5873 5874 5875 5875 5876 5876 5876 5875 5874 5874 5873 5873 5872 5871 5870 5869 5867 5866 5864 5863 5863 5864 5864 5865 5868 5870 5872 5874 5877 5880 5884 5888 5888 5889
5818 5817 5816 5816 5815 5814 5813 5813 5813 5812 5812 5812 5812 5812 5813 5814 5815 5816 5818 5819 5820 5820 5821 5821 5822 5824 5826 5828 5830 5832 5836 5838 5840 5843 5845 5847 5849 5852 5853 5855 5857 5858 5859 5861 5863 5864 5865 5867 5868 5869 5871 5872 5872 5871 5872 5874 5875 5876 5876 5875 5875 5875 5874 5874 5874 5873 5872 5872 5871 5870 5868 5866 5865 5864 5863 5864 5865 5865 5867 5869 5872 5874 5877 5879 5884 5888 5890 5890
5817 5816 5815 5815 5814 5813 5812 5812 5811 5811 5811 5810 5811 5811 5812 5813 5815 5817 5817 5818 5818 5819 5820 5820 5822 5823 5824 5827 5829 5831 5833 5835 5837 5841 5843 5845 5847 5849 5852 5854 5855 5857 5858 5859 5862 5863 5864 5865 5866 5868 5869 5870 5871 5871 5872 5873 5874 5875 5875 5874 5874 5875 5874 5874 5874 5873 5873 5872 5872 5871 5869 5867 5866 5865 5864 5864 5865 5866 5867 5869 5872 5875 5878 5880 5883 5888 5891 5891
5816 5815 5815 5814 5813 5812 5811 5811 5810 5810 5810 5809 5810 5811 5811 5812 5814 5816 5817 5817 5817 5818 5819 5820 5821 5823 5824 5826 5827 5829 5831 5833 5836 5839 5841 5843 5845 5847 5850 5853 5854 5855 5856 5858 5860 5861 5861 5863 5865 5866 5866 5868 5870 5871 5871 5872 5873 5874 5874 5873 5874 5874 5873 5873 5874 5873 5872 5872 5872 5872 5870 5868 5866 5865 5865 5864 5865 5867 5868 5870 5872 5876 5879 5880 5883 5887 5890 5892
5815 5814 5814 5813 5812 5811 5810 5810 5809 5809 5809 5808 5809 5810 5811 5812 5814 5815 5816 5817 5817 5818 5818 5820 5821 5822 5824 5824 5825 5827 5830 5831 5834 5837 5839 5840 5843 5846 5848 5850 5852 5853 5853 5856 5858 5859 5860 5861 5862 5862 5864 5867 5868 5870 5870 5871 5872 5873 5873 5873 5874 5874 5873 5873 5873 5873 5873 5872 5871 5871 5871 5869 5867 5866 5866 5865 5866 5867 5869 5871 5873 5876 5879 5880 5883 5886 5889 5892
5814 5814 5813 5812 5811 5810 5810 5809 5809 5808 5808 5808 5809 5810 5811 5812 5813 5814 5816 5817 5817 5818 5818 5819 5820 5822 5823 5823 5824 5826 5828 5829 5832 5835 5837 5839 5841 5844 5846 5847 5849 5850 5852 5855 5857 5859 5860 5860 5861 5863 5865 5867 5868 5869 5870 5871 5872 5872 5872 5873 5873 5873 5873 5873 5873 5873 5872 5871 5870 5871 5871 5870 5868 5867 5866 5866 5867 5867 5868 5870 5872 5875 5877 5879 5882 5886 5889 5891
5814 5813 5812 5812 5811 5810 5809 5809 5808 5808 5807 5808 5808 5809 5811 5811 5812 5814 5815 5816 5817 5818 5818 5819 5820 5821 5822 5822 5823 5825 5826 5828 5831 5834 5837 5838 5840 5843 5844 5846 5848 5849 5851 5853 5857 5858 5859 5861 5863 5865 5867 5868 5868 5868 5869 5870 5871 5871 5871 5873 5872 5872 5873 5873 5873 5872 5872 5871 5871 5870 5870 5870 5869 5867 5867 5867 5867 5867 5867 5870 5873 5875 5878 5880 5882 5886 5888 5890
5813 5812 5812 5811 5810 5809 5809 5808 5808 5808 5807 5808 5808 5809 5810 5810 5811 5812 5814 5816 5817 5818 5818 5818 5819 5821 5822 5822 5823 5825 5826 5827 5830 5833 5836 5837 5839 5842 5843 5845 5846 5848 5850 5852 5855 5857 5859 5861 5862 5863 5865 5867 5867 5868 5869 5870 5870 5871 5871 5871 5871 5871 5872 5872 5872 5872 5871 5871 5871 5871 5870 5870 5869 5867 5867 5867 5867 5866 5866 5868 5872 5876 5879 5881 5883 5885 5887 5889
5813 5812 5811 5811 5810 5809 5809 5808 5808 5808 5807 5807 5808 5808 5809 5809 5810 5811 5813 5814 5816 5817 5818 5818 5818 5820 5821 5822 5823 5824 5825 5827 5829 5833 5835 5837 5838 5840 5842 5843 5845 5847 5849 5851 5853 5855 5857 5858 5860 5862 5864 5865 5866 5868 5869 5869 5870 5870 5870 5870 5871 5871 5871 5871 5871 5871 5871 5872 5872 5871 5870 5869 5868 5867 5867 5867 5867 5867 5866 5867 5871 5874 5878 5881 5884 5885 5886 5889
5812 5811 5811 5810 5810 5809 5808 5808 5808 5808 5807 5807 5808 5808 5808 5809 5810 5811 5812 5813 5815 5816 5818 5818 5818 5820 5822 5822 5823 5824 5825 5826 5829 5831 5834 5835 5837 5838 5839 5841 5843 5845 5847 5848 5850 5853 5856 5858 5860 5862 5863 5864 5866 5867 5868 5869 5870 5870 5870 5871 5871 5871 5871 5871 5871 5871 5871 5872 5872 5871 5869 5868 5867 5867 5867 5867 5868 5867 5867 5868 5870 5872 5875 5878 5882 5884 5886 5888
5812 5811 5810 5810 5809 5809 5809 5808 5808 5808 5807 5807 5808 5808 5808 5809 5810 5811 5812 5813 5814 5816 5817 5818 5819 5820 5822 5823 5824 5824 5825 5826 5828 5829 5832 5834 5835 5836 5838 5839 5841 5843 5845 5846 5849 5852 5855 5857 5859 5860 5861 5863 5864 5866 5867 5868 5869 5869 5869 5870 5871 5871 5871 5871 5871 5871 5871 5872 5872 5870 5868 5867 5868 5868 5868 5868 5868 5868 5868 5869 5870 5871 5873 5876 5880 5883 5886 5888
5811 5810 5810 5809 5809 5809 5808 5808 5808 5807 5807 5807 5808 5808 5808 5809 5811 5812 5812 5813 5814 5814 5815 5817 5819 5820 5821 5823 5824 5825 5825 5826 5827 5828 5830 5832 5834 5835 5837 5838 5840 5842 5844 5846 5848 5850 5853 5855 5856 5858 5859 5860 5862 5864 5866 5867 5868 5868 5868 5869 5870 5871 5871 5871 5871 5871 5871 5871 5871 5869 5867 5867 5868 5868 5868 5869 5869 5869 5869 5869 5871 5872 5874 5877 5881 5883 5886 5888
5810 5810 5809 5809 5809 5809 5808 5808 5808 5807 5807 5807 5808 5808 5808 5809 5811 5812 5812 5812 5814 5815 5815 5817 5818 5819 5820 5821 5823 5825 5825 5826 5827 5828 5830 5831 5833 5834 5836 5837 5839 5841 5843 5844 5846 5848 5851 5853 5855 5857 5858 5859 5859 5861 5864 5866 5867 5868 5868 5868 5869 5870 5871 5870 5870 5871 5871 5870 5869 5867 5867 5868 5869 5868 5868 5868 5869 5869 5870 5871 5872 5875 5877 5879 5881 5883 5886 5888
5810 5809 5809 5809 5809 5809 5808 5808 5807 5807 5807 5807 5808 5808 5809 5810 5811 5811 5811 5812 5814 5815 5815 5816 5817 5818 5820 5820 5822 5824 5825 5826 5827 5828 5829 5830 5832 5833 5834 5836 5838 5839 5841 5842 5844 5846 5849 5852 5854 5855 5857 5857 5857 5858 5862 5864 5866 5867 5868 5867 5869 5870 5870 5870 5870 5870 5870 5870 5868 5867 5868 5868 5868 5868 5868 5868 5868 5868 5870 5871 5873 5876 5878 5881 5882 5884 5885 5887
5809 5809 5809 5808 5808 5808 5808 5807 5807 5807 5807 5807 5808 5808 5809 5810 5811 5811 5811 5811 5813 5814 5814 5815 5817 5819 5820 5821 5821 5822 5824 5826 5827 5828 5828 5830 5831 5832 5833 5835 5837 5838 5839 5841 5842 5844 5847 5850 5852 5854 5854 5856 5856 5857 5860 5863 5865 5866 5867 5867 5868 5869 5869 5869 5870 5870 5870 5869 5868 5868 5868 5868 5868 5868 5869 5869 5869 5868 5869 5871 5872 5875 5878 5880 5883 5884 5886 5888
5808 5808 5808 5808 5808 5807 5807 5807 5807 5807 5807 5807 5807 5808 5808 5809 5811 5811 5811 5811 5813 5814 5815 5817 5818 5819 5820 5821 5821 5821 5823 5825 5827 5828 5829 5830 5831 5832 5833 5834 5835 5837 5838 5840 5841 5843 5846 5848 5851 5852 5853 5854 5856 5857 5860 5862 5864 5865 5866 5866 5867 5868 5868 5869 5870 5870 5870 5869 5868 5868 5868 5868 5869 5869 5869 5870 5870 5869 5869 5870 5870 5873 5876 5879 5881 5883 5886 5888
5808 5807 5807 5807 5807 5806 5806 5806 5806 5807 5806 5806 5806 5807 5807 5809 5810 5811 5811 5811 5812 5815 5816 5818 5818 5819 5820 5820 5820 5820 5822 5824 5826 5827 5829 5830 5831 5832 5833 5834 5834 5835 5837 5838 5840 5842 5845 5847 5849 5851 5852 5851 5852 5855 5857 5860 5862 5864 5865 5865 5866 5867 5868 5869 5869 5869 5869 5869 5868 5869 5868 5868 5869 5870 5869 5869 5870 5870 5870 5870 5870 5871 5873 5876 5879 5882 5885 5887
5807 5807 5806 5806 5806 5805 5805 5806 5806 5806 5806 5806 5806 5807 5807 5808 5810 5811 5810 5810 5811 5814 5816 5818 5818 5819 5820 5820 5819 5820 5821 5822 5825 5826 5828 5830 5831 5831 5832 5834 5834 5834 5836 5838 5839 5842 5845 5846 5848 5849 5849 5849 5850 5853 5856 5858 5860 5863 5865 5865 5865 5866 5867 5868 5868 5868 5867 5867 5867 5868 5868 5868 5869 5870 5870 5869 5869 5870 5871 5871 5872 5872 5872 5873 5876 5880 5883 5885
5806 5806 5806 5805 5805 5805 5805 5805 5805 5805 5806 5806 5806 5807 5807 5808 5808 5809 5809 5808 5809 5811 5812 5814 5815 5816 5817 5818 5818 5819 5820 5822 5825 5826 5827 5829 5831 5831 5832 5833 5834 5834 5835 5837 5839 5841 5842 5844 5846 5848 5849 5851 5852 5854 5857 5859 5860 5861 5863 5863 5863 5865 5866 5866 5867 5866 5866 5866 5866 5867 5867 5867 5868 5868 5869 5870 5870 5870 5871 5872 5872 5873 5873 5873 5874 5877 5881 5884
5805 5805 5805 5805 5805 5804 5804 5804 5804 5804 5804 5805 5806 5806 5807 5807 5806 5807 5808 5808 5807 5808 5809 5810 5811 5812 5815 5816 5818 5819 5820 5822 5824 5825 5826 5828 5830 5830 5831 5833 5834 5834 5834 5836 5838 5840 5841 5844 5846 5848 5850 5852 5853 5855 5857 5858 5858 5859 5861 5862 5862 5863 5864 5865 5866 5866 5865 5865 5865 5865 5866 5866 5867 5867 5867 5869 5870 5870 5870 5872 5873 5873 5873 5874 5874 5876 5879 5882
5804 5804 5804 5804 5804 5803 5803 5803 5802 5802 5802 5803 5804 5805 5806 5806 5806 5806 5807 5808 5808 5808 5809 5810 5811 5812 5814 5815 5817 5819 5821 5822 5822 5821 5823 5825 5826 5827 5829 5831 5833 5834 5834 5835 5837 5838 5840 5843 5845 5848 5850 5851 5853 5854 5855 5856 5857 5857 5859 5860 5861 5862 5863 5865 5865 5865 5865 5864 5864 5864 5865 5865 5866 5866 5866 5868 5870 5870 5870 5871 5872 5872 5873 5874 5874 5875 5878 5882
5802 5802 5802 5802 5802 5802 5802 5802 5802 5802 5802 5803 5803 5803 5804 5805 5805 5806 5806 5807 5808 5809 5810 5811 5812 5813 5814 5815 5817 5819 5820 5820 5818 5818 5820 5822 5823 5825 5827 5830 5833 5834 5835 5835 5836 5837 5838 5840 5843 5845 5847 5849 5851 5852 5853 5855 5856 5856 5856 5857 5858 5859 5862 5863 5864 5864 5864 5864 5863 5863 5864 5865 5866 5866 5866 5867 5870 5870 5869 5870 5871 5872 5873 5874 5875 5875 5877 5880
5800 5800 5800 5800 5801 5801 5801 5801 5801 5802 5802 5802 5802 5802 5802 5803 5804 5805 5805 5805 5806 5808 5810 5811 5811 5813 5815 5816 5817 5817 5817 5816 5815 5815 5817 5820 5823 5825 5826 5828 5830 5833 5834 5835 5835 5836 5837 5838 5840 5842 5845 5848 5849 5850 5851 5853 5854 5855 5856 5856 5855 5856 5859 5861 5863 5863 5863 5863 5863 5863 5863 5864 5865 5866 5866 5866 5868 5869 5870 5870 5872 5873 5873 5875 5876 5876 5877 5879
5799 5798 5798 5799 5799 5799 5799 5800 5800 5800 5801 5801 5801 5801 5801 5802 5803 5805 5805 5804 5805 5806 5807 5809 5810 5811 5811 5812 5813 5814 5815 5814 5814 5815 5817 5819 5821 5823 5825 5826 5827 5829 5832 5832 5833 5834 5836 5837 5838 5841 5844 5846 5846 5848 5849 5851 5852 5854 5855 5856 5856 5855 5857 5859 5861 5862 5863 5863 5862 5862 5862 5863 5865 5866 5866 5866 5867 5868 5870 5871 5872 5874 5874 5875 5877 5877 5878 5879
5798 5797 5797 5797 5797 5798 5798 5798 5798 5798 5798 5799 5799 5799 5799 5799 5800 5802 5803 5803 5804 5804 5804 5805 5805 5806 5806 5807 5809 5811 5812 5813 5814 5815 5817 5818 5820 5822 5824 5824 5825 5827 5829 5829 5830 5831 5834 5836 5837 5840 5842 5843 5844 5845 5847 5848 5850 5852 5854 5855 5856 5855 5856 5857 5858 5860 5862 5862 5861 5862 5862 5863 5864 5865 5865 5866 5867 5867 5868 5870 5871 5873 5874 5876 5877 5878 5879 5880
5797 5796 5796 5796 5795 5795 5796 5796 5796 5796 5796 5796 5795 5796 5796 5797 5797 5797 5798 5800 5801 5801 5802 5802 5802 5802 5803 5804 5807 5809 5810 5812 5813 5815 5817 5818 5819 5821 5822 5823 5824 5824 5825 5827 5828 5829 5832 5834 5835 5838 5840 5841 5842 5844 5846 5848 5849 5851 5853 5854 5855 5855 5855 5856 5856 5858 5860 5861 5861 5861 5861 5862 5863 5864 5864 5866 5867 5867 5868 5869 5870 5872 5873 5875 5876 5877 5879 5880
5794 5794 5794 5794 5793 5793 5793 5793 5794 5793 5793 5793 5794 5795 5795 5795 5795 5795 5796 5798 5798 5798 5800 5801 5801 5801 5802 5803 5805 5807 5808 5809 5812 5814 5815 5817 5818 5819 5821 5822 5823 5822 5823 5825 5827 5828 5831 5833 5833 5834 5837 5839 5841 5843 5845 5847 5848 5850 5852 5853 5854 5854 5854 5854 5854 5856 5858 5859 5859 5860 5860 5861 5861 5862 5863 5864 5866 5867 5868 5869 5869 5871 5872 5873 5875 5877 5879 5880
5792 5792 5792 5791 5790 5791 5791 5791 5791 5791 5791 5792 5793 5794 5794 5794 5794 5794 5795 5795 5795 5796 5798 5799 5800 5800 5800 5801 5803 5805 5805 5807 5810 5812 5814 5815 5816 5817 5819 5820 5822 5822 5822 5823 5825 5826 5829 5830 5831 5831 5833 5836 5839 5842 5844 5845 5846 5848 5849 5850 5851 5852 5852 5851 5852 5853 5855 5857 5857 5858 5859 5859 5859 5860 5862 5862 5863 5865 5867 5868 5869 5870 5871 5872 5873 5876 5877 5879